User: anonymous   Login
Location: Newark
(3.3223°N, 76.2348°W)
Time: 15:17:59
(UTC+00:00)
Language:

Gurwin Techsat 1B - Orbit

View from above orbital plane
View from above orbital plane
View from above satellite
View from above satellite

Ground track
Ground track

The orbit data is extracted from the following two-line orbital elements,

1 25397U 98043D   20024.80878219 -.00000036  00000-0  35591-5 0  9999
2 25397  98.7140 327.5265 0002274 104.6613 255.4818 14.23678062119196
Epoch (UTC): 24 January 2020 19:24:38
Eccentricity: 0.0002274
inclination: 98.7140°
perigee height: 811 km
apogee height: 814 km
right ascension of ascending node: 327.5265°
argument of perigee: 104.6613°
revolutions per day: 14.23678062
mean anomaly at epoch: 255.4818°
orbit number at epoch: 11919

The dashed part of the orbit path shows where the satellite is in the earth's shadow,  

DLR